Location: Unspecified
(43.4680°N, 87.1740°E)
Time: 06:11:14
(UTC+00:00)

STARLINK-1116 - Pass Details

Date: 17 January 2020
Orbit: 348 x 351 km, 53.0° (Epoch: 23 February)

Event Time Altitude Azimuth Distance (km) Brightness Sun altitude
Rises 13:02:00 0° 253° (WSW) 2,236 8.2 -21.4°
Reaches altitude 10° 13:04:08 10° 261° (W) 1,388 6.8 -21.7°
Enters shadow 13:06:35 35° 308° (NW) 630 4.2 -22.2°
